This demonstration page uses our WeatherBlox Daily Observations layout. Learn more.

Left ArrowRight Arrow

Hourly Observations for July 5, 2018

Temp ( °F °C ) Dew Point ( °F °C ) Humidity (%) Winds ( mph kmh ) Pressure ( in mb ) Visibility ( mi km ) Precip ( " mm )
12:51 am 00:51 Clear 83 28.3 35 1.7 18 18 NW 9 15 29.83 1010 10 16.0934 N/A
1:51 am 01:51 Clear 83 28.3 36 2.2 19 19 NW 10 17 29.84 1010 10 16.0934 N/A
2:51 am 02:51 Clear 83 28.3 36 2.2 19 19 NW 9 15 29.84 1011 10 16.0934 N/A
3:51 am 03:51 Clear 81 27.2 36 2.2 20 20 SSE 6 9 29.86 1011 10 16.0934 N/A
4:51 am 04:51 Clear 82 27.8 43 6.1 25 25 SE 6 9 29.88 1012 10 16.0934 N/A
5:51 am 05:51 Sunny 78 25.6 37 2.8 23 23 S 3 6 29.92 1013 10 16.0934 N/A
6:51 am 06:51 Sunny 85 29.4 38 3.3 19 19 E 3 6 29.93 1014 10 16.0934 N/A
7:51 am 07:51 Sunny 90 32.2 41 5 18 18 SE 6 9 29.95 1014 10 16.0934 N/A
8:51 am 08:51 Sunny 93 33.9 47 8.3 21 21 SE 7 11 29.95 1014 10 16.0934 N/A
9:51 am 09:51 Sunny 97 36.1 49 9.4 20 20 S 9 15 29.94 1014 10 16.0934 N/A
10:51 am 10:51 Mostly Sunny 101 38.3 48 8.9 17 17 ESE 13 20 29.93 1013 10 16.0934 N/A
11:51 am 11:51 Sunny 103 39.4 44 6.7 13 13 ESE 18 30 29.9 1013 10 16.0934 N/A
12:51 pm 12:51 Sunny 103 39.4 44 6.7 13 13 ESE 13 20 29.88 1012 10 16.0934 N/A
1:51 pm 13:51 Mostly Sunny 103 39.4 43 6.1 13 13 SE 16 26 29.88 1012 10 16.0934 N/A
2:17 pm 14:17 Mostly Cloudy 98 36.7 48 8.9 18 18 NE 26 43 29.8 1009 10 16.0934 N/A
2:51 pm 14:51 Mostly Sunny 98 36.7 48 8.9 18 18 ENE 24 39 29.88 1012 10 16.0934 N/A
3:51 pm 15:51 Sunny 101 38.3 46 7.8 15 15 ENE 22 35 29.87 1012 10 16.0934 N/A
4:51 pm 16:51 Sunny 98 36.7 47 8.3 17 17 NNE 20 31 29.85 1011 10 16.0934 N/A
5:51 pm 17:51 Sunny 96 35.6 47 8.3 19 19 ENE 18 30 29.89 1012 10 16.0934 N/A
6:51 pm 18:51 Sunny 96 35.6 47 8.3 19 19 ENE 10 17 29.89 1012 10 16.0934 N/A
7:51 pm 19:51 Clear 94 34.4 49 9.4 21 21 ENE 17 28 29.91 1013 10 16.0934 N/A
8:51 pm 20:51 Clear 93 33.9 49 9.4 22 22 ENE 8 13 29.93 1013 10 16.0934 N/A
9:51 pm 21:51 Clear 92 33.3 49 9.4 23 23 ENE 17 28 29.95 1014 10 16.0934 N/A
10:51 pm 22:51 Clear 91 32.8 51 10.6 26 26 ESE 23 37 29.97 1015 10 16.0934 N/A
11:51 pm 23:51 Partly Cloudy 87 30.6 51 10.6 29 29 E 14 22 29.98 1015 10 16.0934 N/A

Powered by AerisWeather